Tracking 35334 objects as of 12-Sep-2026
HD Live streaming from Space Station
objects crossing your sky now

SL-12 R/B(AUX MOTOR)


SL-12 R/B(AUX MOTOR) is no longer on orbit


NORAD ID: 22885
Int'l Code: 1993-069F
Launch date: October 28, 1993
Source: Commonwealth of Independent States (former USSR) (CIS)
Launch site: TYURATAM MISSILE AND SPACE COMPLEX (TTMTR)
Decay date: 1994-10-08

Note: This is a ROCKET BODY
Your satellite tracking list
Your tracking list is empty




NASA's NSSDC Master Catalog

Two Line Element Set (TLE):
1 22885U 93069  F 94280.80875644  .61485678 +32804-5 +53361-3 0  9995
2 22885 046.3111 072.2463 0484050 201.2976 164.2717 15.49202183012012
Source of the keplerian elements: AFSPC